User: anonymous
Location: Unspecified
(0.0000°N, 0.0000°E)
Time: 04:25:58
(UTC+02:00)
Language:

ARIANE 5 R/B - Orbit

View from above orbital plane
View from above orbital plane
View from above satellite
View from above satellite

Ground track
Ground track

The orbit data is extracted from the following two-line orbital elements,

1 28886U 05041C   14263.40968484 -.00000130  00000-0 -13807-2 0  6142
2 28886 008.3221 020.5254 7182444 076.3693 355.3355 02.24316121 73261
Epoch (UTC): 20 September 2014 09:49:56
Eccentricity: 0.7182444
inclination: 8.3221°
perigee height: 567 km
apogee height: 35977 km
right ascension of ascending node: 20.5254°
argument of perigee: 76.3693°
revolutions per day: 2.24316121
mean anomaly at epoch: 355.3355°
orbit number at epoch: 7326

The dashed part of the orbit path shows where the satellite is in the earth's shadow,  

DLR